Location: Hains Lake
(37.8540°N, 99.8578°W)
Time: 04:57:28
(UTC+00:00)

Vanguard 2 Rocket - Pass Details

Date: 22 April 2021
Orbit: 553 x 3326 km, 32.9° (Epoch: 07 May)

Event Time Altitude Azimuth Distance (km) Brightness Sun altitude
Rises 18:46:08 0° 233° (SW) 5,781 11.2 64.5°
Reaches altitude 10° 18:49:31 10° 229° (SW) 5,083 11.1 64.5°
Maximum altitude 19:05:20 59° 155° (SSE) 3,500 11.6 63.9°
Drops below altitude 10° 19:25:00 10° 83° (E) 6,170 11.1 62.5°
Sets 19:29:35 0° 80° (E) 7,033 11.3 62.1°
